Location: Stanford
(52.2833°N, 2.4333°W)
Time: 19:29:53
(UTC+00:00)

Cosmos 2297 Rocket - Pass Details

Date: 22 January 2021
Orbit: 841 x 842 km, 71.0° (Epoch: 27 February)

Event Time Altitude Azimuth Distance (km) Brightness Sun altitude
Rises 17:56:49 0° 269° (W) 3,397 7.0 -11.7°
Reaches altitude 10° 18:00:03 10° 287° (WNW) 2,465 5.5 -12.1°
Maximum altitude 18:03:57 19° 331° (NNW) 1,927 4.2 -12.7°
Drops below altitude 10° 18:07:52 10° 15° (NNE) 2,471 4.3 -13.3°
Enters shadow 18:09:29 - 26° (NNE) 2,912 4.6 -13.5°
